Temp
62 62 62 61 61 60 60 60 61 61 62 62 62 62 62 62 61 61 60 60 60 60
58 58 58 58 58 58 59 59 60 60 60 60 60 60 60 59 60 60 59 59 59 59
57 57 57 57 57 57 58 58 58 59 59 59 59 59 59 58 59 59 59 59 59 59
55 56 56 56 56 56 58 59 58 59 59 58 58 59 58 58 57 57 56 56 55 55
55 55 55 54 54 55 55 56 56 57 57 56 55 54 54 52 53 53 52 51 52 50
53 53 52 52 53 53 53 51 52 52 52 51 52 51 52 52 51 50 47 46 46 46
49 49 50 52 51 49 49 49 48 48 48 48 48 48 47 46 46 46 45 45 45 45
47 47 46 47 46 46 46 46 46 46 45 45 45 45 43 44 43 42 42 42 42 42
45 45 45 44 44 44 43 43 44 43 43 42 44 48 48 42 39 38 38 38 38 40
44 44 44 43 43 42 41 41 41 41 41 40 41 47 47 43 38 36 36 38 37 39
44 43 42 42 42 40 39 39 39 39 39 39 40 47 46 45 39 39 40 39 39 39
43 42 41 40 39 38 39 38 37 37 37 37 37 45 46 43 37 35 36 38 39 40
42 41 40 40 38 38 37 37 37 36 35 38 35 42 45 43 36 33 33 34 36 42
41 41 40 39 37 37 37 36 35 37 39 38 35 36 44 45 38 36 35 32 33 35
MSLP
1013.96 1014.41 1014.88 1015.04 1015.68 1016.19 1016.76 1017.08 1017.31 1017.81 1018.20 1018.20 1018.68 1018.96 1019.16 1019.33 1019.67 1020.02 1020.26 1019.98 1019.95 1020.07
1013.83 1014.28 1014.87 1015.48 1015.79 1016.46 1016.93 1017.23 1017.63 1017.90 1018.41 1018.63 1018.79 1018.93 1019.29 1019.62 1019.68 1019.98 1019.99 1020.21 1020.35 1020.43
1014.24 1014.74 1015.48 1016.06 1016.37 1016.72 1017.05 1017.42 1017.68 1017.95 1018.28 1018.56 1018.74 1018.92 1019.41 1019.63 1019.80 1019.83 1020.00 1020.23 1020.47 1020.28
1014.66 1015.16 1015.63 1016.06 1016.45 1016.87 1017.24 1017.16 1017.38 1017.90 1018.20 1018.45 1018.70 1019.07 1019.40 1019.61 1019.93 1020.05 1020.17 1020.40 1020.64 1020.84
1015.16 1015.72 1016.19 1016.56 1016.93 1017.22 1017.42 1017.56 1017.71 1018.10 1018.41 1018.67 1018.85 1019.15 1019.55 1019.92 1020.05 1020.39 1020.65 1020.81 1020.97 1021.30
1015.65 1016.19 1016.65 1016.83 1017.36 1017.60 1017.78 1018.16 1018.32 1018.65 1018.97 1019.25 1019.33 1019.51 1019.73 1020.03 1020.30 1020.75 1021.19 1021.31 1021.37 1021.43
1015.94 1016.33 1016.55 1016.96 1017.53 1017.80 1018.15 1018.40 1018.64 1019.01 1019.45 1019.82 1020.10 1020.25 1020.30 1020.32 1020.55 1020.98 1021.31 1021.55 1021.71 1021.56
1016.22 1016.55 1016.95 1017.34 1017.67 1018.07 1018.36 1018.68 1018.83 1019.36 1019.96 1020.22 1020.46 1020.38 1020.61 1020.64 1020.86 1021.12 1021.43 1021.61 1021.89 1021.79
1016.72 1017.12 1017.32 1017.86 1018.35 1018.77 1019.04 1019.34 1019.51 1019.96 1020.39 1020.49 1020.39 1020.79 1021.00 1021.14 1021.26 1021.51 1021.69 1021.65 1021.48 1021.56
1016.94 1017.38 1017.66 1018.08 1018.46 1019.04 1019.44 1019.61 1020.01 1020.30 1020.30 1020.40 1020.69 1021.17 1021.43 1021.17 1021.28 1021.54 1021.78 1021.84 1021.84 1021.78
1017.23 1017.61 1017.84 1018.38 1018.69 1019.28 1019.60 1019.77 1020.30 1020.53 1020.64 1020.88 1021.14 1021.59 1021.43 1021.28 1021.47 1021.63 1021.71 1021.77 1021.83 1021.85
1017.50 1017.94 1018.20 1018.80 1019.11 1019.46 1019.86 1020.16 1020.50 1020.61 1020.83 1021.01 1021.30 1021.36 1021.16 1021.28 1021.56 1021.76 1021.78 1021.60 1021.56 1021.69
1017.67 1017.99 1018.55 1018.80 1019.28 1019.62 1019.93 1020.19 1020.54 1020.76 1021.05 1021.33 1021.36 1021.21 1021.13 1021.16 1021.48 1021.76 1021.94 1021.77 1021.63 1021.63
1017.67 1018.09 1018.43 1018.88 1019.25 1019.76 1019.99 1020.29 1020.79 1021.06 1021.06 1021.13 1021.11 1020.94 1021.00 1021.12 1021.30 1021.66 1021.86 1021.80 1021.79 1021.74
Wind_Speed
11 8 7 7 6 4 3 3 4 4 4 6 6 5 4 3 2 1 3 2 1 1
5 7 5 5 5 4 4 3 4 3 2 2 3 3 4 3 3 4 2 3 3 3
6 6 6 5 6 6 5 4 4 4 5 4 2 3 3 2 3 3 2 3 5 4
5 5 5 4 4 4 4 5 4 4 4 5 4 3 4 3 0 1 2 2 3 4
5 5 4 4 3 2 1 1 2 3 3 4 4 4 4 4 4 3 4 5 5 5
6 5 5 5 5 4 5 4 4 5 5 5 5 5 5 5 5 4 2 2 2 3
6 6 5 5 5 6 6 6 6 6 6 5 5 5 5 5 5 4 3 2 2 3
5 6 6 6 6 5 6 5 6 7 6 5 5 4 5 5 5 4 3 2 3 3
6 6 6 6 6 6 6 6 6 6 5 5 4 9 9 6 4 4 4 5 5 5
6 6 6 6 6 6 5 5 6 5 5 6 5 7 7 9 4 3 3 4 4 4
5 5 5 5 6 5 3 5 4 4 5 4 2 2 4 6 3 2 2 1 2 3
5 5 5 5 5 3 3 3 2 3 3 2 0 1 2 3 3 3 3 2 1 2
5 6 6 5 5 3 2 3 3 3 2 1 2 4 3 2 2 1 2 3 1 3
5 6 5 5 3 4 3 4 2 1 1 2 3 4 5 6 2 2 2 2 2 2
Wind_Direction
165 169 181 164 165 162 170 163 164 186 185 168 170 169 166 155 175 255 258 339 71 328
145 124 140 129 108 115 115 121 136 140 165 165 179 171 159 183 189 228 271 288 286 254
129 121 133 138 142 148 150 156 164 186 190 177 189 185 203 211 229 219 236 245 259 262
117 128 126 132 144 177 204 194 188 195 197 201 195 206 199 194 350 346 39 39 8 316
135 140 135 127 117 135 159 352 200 178 153 138 117 117 121 116 76 46 7 359 348 336
126 127 131 121 125 116 111 110 96 103 106 102 108 101 90 98 102 87 89 52 10 333
127 125 111 104 112 109 111 109 94 91 98 95 87 94 102 102 96 87 70 36 357 350
117 113 111 99 89 94 92 97 100 95 84 88 84 67 63 62 61 52 28 34 4 5
124 125 115 118 121 111 106 97 93 98 112 95 76 65 64 70 66 42 25 1 353 352
125 125 127 128 121 116 115 113 101 95 91 79 68 71 68 59 69 54 22 359 340 339
128 128 116 117 114 113 98 99 102 95 89 102 89 114 74 55 56 45 47 20 349 324
146 141 133 141 139 132 123 113 119 111 101 84 304 324 26 73 26 351 325 4 357 316
160 152 164 159 157 134 130 129 123 99 93 274 260 291 280 138 122 326 301 301 296 281
166 168 165 149 130 147 125 109 125 185 255 265 258 274 274 224 173 227 263 246 282 269